www.pogodaiklimat.ru

Погода и климат >> Архив погоды >> Канада >> Нунавут >> Мыс Пил-Вест


ПОГОДА на Мысе Пил-Вест

  • Прогноз погоды на Мысе Пил-Вест
  • Монитор погоды на Мысе Пил-Вест

АРХИВ ПОГОДЫ на Мысе Пил-Вест

Время (UTC), дата Ветер
(напр.,м/с)
 
Видим.   Явления Облачность Т
(С)
Тd
(С)
f
(%)
Тe
(С)
Тes
(С)
Комфортность P
(гПа)
Po
(гПа)
Тmin
(С)
Tmax
(С)
R
(мм)
R24
(мм)
S
(см)
09 18.05 В 10 н/о 10/10 50 м
[]
-11.8 -13.4 88 -23 -23 1030.4 1008.4
12 18.05 В 11 н/о ясно -11.4 -12.9 89 -23 -23 1030.2 1008.2
15 18.05 В 11 н/о ясно -9.9 -11.3 89 -21 -21 1029.7 1007.7
18 18.05 В 10 н/о ясно -7.3 -9.3 86 -18 -17 1029.7 1007.7
21 18.05 В 9 н/о ясно -5.7 -7.4 88 -15 -14 1029.5 1007.6
00 19.05 В 8 н/о ясно -5.4 -7.0 88 -14 -13 1028.8 1006.9
03 19.05 В 7 н/о ясно -7.3 -8.3 93 -16 -16 1028.2 1006.3
06 19.05 В 7 н/о ясно -9.0 -10.0 92 -18 -18 1027.8 1005.9 -12.8 -5.4
09 19.05 СВ 4 н/о 9/0
[]
-10.0 -11.6 88 -17 -17 1027.7 1005.9
12 19.05 СВ 4 н/о ясно -7.4 -9.4 86 -14 -13 1027.4 1005.6
15 19.05 В 4 н/о 5/0 2000 м
[]
-4.6 -7.8 78 -11 -8 1026.4 1004.7
18 19.05 СВ 4 н/о 10/0 2000 м
[]
-4.4 -7.2 81 -11 -8 1026.4 1004.6
21 19.05 СВ 8 н/о 10/0
[]
-4.2 -6.2 86 -13 -12 1025.9 1004.1
00 20.05 СВ 10 н/о 10/0
[]
-4.5 -5.5 93 -14 -14 1025.0 1003.3
03 20.05 СВ 11 н/о 10/10 50 м
[]
-4.5 -5.0 96 -15 -15 1024.4 1002.8
06 20.05 СВ 11 н/о 10/10 50 м
[]
-5.7 -6.4 95 -16 -16 1024.7 1003.1 -10.6 -3.6
09 20.05 СВ 13 н/о 10/10 50 м
[]
-7.7 -8.6 93 -19 -19 1025.0 1003.3
12 20.05 СВ 13 н/о 9/9 100 м
[]
-10.5 -12.0 89 -22 -22 1025.9 1004.1
15 20.05 СВ 12 н/о 9/9 100 м
[]
-9.7 -11.1 89 -21 -21 1027.1 1005.3
18 20.05 СВ 11 н/о 10/10 100 м
[]
-8.9 -11.0 85 -20 -20 1027.8 1006.0
21 20.05 СВ 9 н/о 3/3 200 м
[]
-10.5 -12.9 82 -21 -20 1029.4 1007.5
00 21.05 СВ 10 н/о ясно -11.1 -13.6 82 -22 -22 1030.4 1008.4
03 21.05 С 5 н/о ясно -12.7 -15.0 83 -21 -21 1031.7 1009.6
06 21.05 С 8 н/о ясно -14.6 -16.4 86 -25 -25 1032.5 1010.4 -14.8 -5.7
09 21.05 С 7 н/о 10/10 50 м
[]
-10.0 -11.3 90 -19 -19 1032.9 1010.8
12 21.05 С 10 н/о 10/10 200 м
[]
-9.7 -11.0 90 -20 -20 1032.8 1010.7
15 21.05 С 10 н/о 9/9 100 м
[]
-8.3 -10.5 84 -19 -19 1033.0 1010.9
18 21.05 С 9 н/о 10/10 200 м
[]
-7.7 -10.2 82 -18 -18 1033.7 1011.6
21 21.05 С 10 н/о 10/10 300 м
[]
-7.7 -10.3 82 -18 -18 1034.1 1012.1
00 22.05 С 9 н/о 10/10 300 м
[]
-7.9 -10.1 84 -18 -18 1035.2 1013.2
03 22.05 СВ 7 н/о 10/10 100 м
[]
-8.8 -10.2 90 -18 -18 1035.9 1013.9
06 22.05 С 7 н/о 10/10 100 м
[]
-9.4 -10.5 92 -18 -18 1036.6 1014.5 -15.0 -7.1
09 22.05 С 6 н/о 10/10 100 м
[]
-10.4 -11.7 90 -19 -19 1037.3 1015.2
12 22.05 С 5 н/о 10/10 50 м
[]
-11.1 -12.5 89 -19 -19 1037.7 1015.6
15 22.05 С 5 н/о 10/10 50 м
[]
-10.3 -11.7 89 -18 -18 1037.3 1015.2
18 22.05 С 5 н/о 10/10 100 м
[]
-9.3 -10.8 89 -17 -17 1036.5 1014.4
21 22.05 С 4 н/о 9/9 200 м
[]
-9.6 -12.3 81 -16 -15 1035.9 1013.8
00 23.05 С 4 н/о 9/9 50 м
[]
-9.9 -12.1 84 -16 -16 1035.3 1013.2
03 23.05 С 3 н/о 10/10 100 м
[]
-11.6 -12.9 90 -18 -18 1034.3 1012.2
06 23.05 С 5 н/о ясно -14.4 -16.2 86 -23 -23 1033.5 1011.3 -14.4 -9.2
09 23.05 С 5 н/о ясно -16.8 -19.1 82 -26 -26 1033.1 1010.9
12 23.05 С 5 н/о 10/10 50 м
[]
-11.8 -13.3 89 -20 -20 1032.4 1010.3
15 23.05 С 5 н/о 9/9 50 м
[]
-10.7 -12.3 88 -18 -18 1031.6 1009.5
18 23.05 С 4 н/о ясно -9.3 -11.6 83 -16 -10 1030.7 1008.6
21 23.05 С 5 н/о ясно -9.0 -11.4 83 -16 -11 1030.0 1007.9
00 24.05 С 5 н/о ясно -8.6 -10.7 85 -16 -14 1029.0 1007.0
03 24.05 С 6 н/о ясно -11.0 -12.9 86 -20 -19 1028.4 1006.4
06 24.05 С 6 н/о ясно -14.1 -15.8 87 -23 -23 1028.2 1006.2 -16.9 -8.5
09 24.05 С 5 н/о ясно -15.5 -17.5 85 -25 -25 1028.2 1006.1
12 24.05 С 5 н/о ясно -13.3 -15.8 81 -22 -21 1027.9 1005.9
15 24.05 С 4 н/о ясно -9.8 -12.5 81 -17 -13 1027.9 1005.9
18 24.05 С 3 н/о ясно -7.3 -10.7 77 -13 -5 1027.7 1005.7
21 24.05 СЗ 4 н/о ясно -6.4 -10.1 75 -13 -7 1027.2 1005.2
00 25.05 СЗ 7 н/о ясно -7.1 -9.4 84 -16 -14 1026.3 1004.4
03 25.05 З 3 н/о ясно -9.3 -11.5 84 -15 -14 1025.5 1003.6
06 25.05 СЗ 9 н/о ясно -10.4 -12.1 87 -21 -21 1024.3 1002.5 -15.7 -6.2

 

Местоположение метеостанции Мыс Пил-Вест (Нунавут, Канада): широта 69.03 долгота -107.80 высота над уровнем моря 165 м.

В архиве по умолчанию представлена погода на Мысе Пил-Вест за последнюю неделю. Архивные данные за месяц целиком и за предыдущие месяцы, начиная с января 2011 года, Вы можете получить, выбрав интересующий диапазон дат из раскрывающегося списка и нажав кнопку "Ввод!".


*Определитесь, кто Вы:
робот инопланетянин человек

Внимание! Время в таблицах - всемирное. Для получения местного времени необходимо прибавить поправку, которая равна -7 ч.

Смотрите также архив погоды в соседних городах и на ближайших метеорологических станциях:

Погода в Кеймбридж-Бее (Нунавут, Канада) (108 км)
Погода в Кембридж Бэй (Нунавут, Канада) (108 км)
Погода на Острове Хат (Нунавут, Канада) (325 км)
Погода в Куглуктуке (Нунавут, Канада) (327 км)
Погода в Куглуктуке (Северо-Западные территории, Канада) (327 км)
Погода в Люпине (Нунавут, Канада) (390 км)
Погода в Саскатуне (Саскачеван, Канада) (390 км)
Погода в Аэропорту Холман (Северо-Западные территории, Канада) (427 км)
Погода на Реке Крокер (Нунавут, Канада) (451 км)
Погода в Джойа Хейвен (Нунавут, Канада) (481 км)

Пояснения к столбцам:

Ветер - указаны скорость ветра в м/с - средняя за 10 мин, порывы в срок и между сроками (в фигурных скобках) и направление, откуда дует ветер: С - северный, СВ - северо-восточный, В - восточный, ЮВ - юго-восточный, Ю - южный, ЮЗ - юго-западный, З - западный, СЗ - северо-западный.
Видимость - горизонтальная дальность видимости в метрах или километрах. При видимости от 1 до 10 км при отсутствии осадков обычно наблюдается дымка, при ухудшении видимости до 1 км и менее - туман. В сухую погоду видимость может ухудшаться дымом, пылью или мглою.
Явления - указаны атмосферные явления, наблюдавшиеся в срок или в последний час перед сроком; фигурными скобками обозначены явления, наблюдавшиеся между сроками (за 1-3 часа до срока); квадратными скобками обозначены град или гололедные отложения с указанием их диаметра в мм.
Облачность - указаны через наклонную черту общая и нижняя облачность в баллах и высота нижней границы облаков в метрах; квадратными скобками обозначены формы облаков: Ci - перистые, Cs - перисто-слоистые, Cc - перисто-кучевые, Ac - высококучевые, As - высокослоистые, Sc - слоисто-кучевые, Ns - слоисто-дождевые, Cu - кучевые, Cb - кучево-дождевые. Подробнее классификацию облаков см. в Атласе облаков (PDF).
T - Температура воздуха - температура, измеренная на высоте 2 м над землей.
Td - Температура точки росы - температура, при понижении до которой содержащийся в воздухе водяной пар достигнет насыщения.
f - Относительная влажность воздуха - влажноcть воздуха, измеренная на высоте 2 м над землей.
Te - Эффективная температура - температура, которую ощущает одетый по сезону человек в тени. Характеристика душности погоды. При расчете учитывается влияние влажности воздуха и скорости ветра на теплоощущения человека.
Tes - Эффективная температура на солнце - температура, которую ощущает человек, с поправкой на солнечный нагрев. Характеристика знойности погоды. Зависит от высоты солнца над горизонтом, облачности и скорости ветра. Ночью, в пасмурную погоду, а также при ветре 12 м/с и более поправка равна нулю.
P - Атмосферное давление - приведенное к уровню моря атмосферное давление.
Po - Атмосферное давление - измеренное на уровне метеостанции атмосферное давление.
Tmin - Минимальная температура - минимум температуры воздуха на высоте 2 м над землей.
Tmax - Максимальная температура - максимум температуры воздуха на высоте 2 м над землей.
R - Количество осадков - Количество выпавших осадков за период времени, мм. При наведении курсора мыши на число - период времени, за который выпало указанное количество осадков.
R24 - Количество осадков - Количество выпавших осадков за 24 часа, мм.
S - Снежный покров - Высота снежного покрова, см. При наведении курсора мыши на число - состояние снежного покрова и степень покрытия местности в баллах.